Regional Weather Roundup
Issued by NWS State College, PA

Home | Current Version | Previous Version | Text Only | Print | Product List | Glossary On
Versions: 1 2 3 4 5 6 7 8 9 10 11 12 13 14 15 16 17 18 19 20 21 22 23 24 25 26 27 28 29 30 31 32 33 34 35 36 37 38 39 40 41 42 43 44 45 46 47 48 49 50
000
ASUS41 KCTP 230303
RWRCTP

REGIONAL WEATHER ROUNDUP
NATIONAL WEATHER SERVICE STATE COLLEGE PA
1100 PM EDT WED OCT 22 2014

Note: "fair" indicates few or no clouds below 12,000 feet with no
significant weather and/or obstructions to visibility.

* = STATION THAT DOES NOT REPORT PRECIPITATION /E.G. RAIN...SNOW...ETC/
    THUNDER OR FOG.

PAZ002>004-007>009-013>016-020>023-029>032-230400-
WESTERN PENNSYLVANIA

CITY           SKY/WX    TMP DP  RH WIND       PRES   REMARKS
ERIE           CLOUDY    48  43  82 CALM      30.21F
MEADVILLE      CLOUDY    44  40  85 N3        30.19F
FRANKLIN*      CLOUDY    43  37  81 N3        30.18F
NEW CASTLE       N/A     45  41  86 N5        30.21F
BEAVER COUNTY  NOT AVBL
BUTLER*        CLOUDY    45  37  76 NW3       30.19F
PITTSBURGH INT MOCLDY    47  40  76 N9        30.18S
PITTSBURGH     CLOUDY    47  38  71 N7        30.16F
INDIANA*       CLOUDY    46  41  81 VRB5G15   30.16F
LATROBE        NOT AVBL
WASHINGTON CO* CLOUDY    46  39  76 N8        30.20S
$$

PAZ004>006-010>012-017>019-024>028-033>037-041-042-045-046-049>053-230400-
CENTRAL PENNSYLVANIA

CITY           SKY/WX    TMP DP  RH WIND       PRES   REMARKS
BRADFORD       CLOUDY    42  39  89 N13       30.12F
DUBOIS         CLOUDY    43  39  86 N13       30.11F
CLEARFIELD     CLOUDY    45  39  79 N8        30.09F
JOHNSTOWN      CLOUDY    42  38  85 NW14      30.08F
ALTOONA        CLOUDY    47  40  76 N12       30.06F
STATE COLLEGE  CLOUDY    46  40  79 N16G22    30.05F
WILLIAMSPORT   CLOUDY    51  42  71 NW9G17    30.00F
SELINSGROVE    CLOUDY    50  44  80 N9        29.99F
FT INDIANTOWN  CLOUDY    51  48  89 N10G18    29.93F
CAPITAL CITY   CLOUDY    53  43  68 NW16G24   29.96F
HARRISBURG     CLOUDY    52  42  69 NW13G25   29.94F
YORK           CLOUDY    52  43  71 NW13G20   29.94F
$$

PAZ038>040-043-044-047-048-054-055-060>062-067>071-230400-
EASTERN PENNSYLVANIA

CITY           SKY/WX    TMP DP  RH WIND       PRES   REMARKS
SCRANTON       LGT RAIN  50  44  80 N16G26    29.93F
MOUNT POCONO   LGT RAIN  47  43  86 N14G25    29.86F
ALLENTOWN      CLOUDY    53  45  74 N18G29    29.85F
QUAKERTOWN*    CLOUDY    52  46  82 N10G21    29.83F
READING        CLOUDY    53  44  71 NW15G25   29.88F
LANCASTER      CLOUDY    51  43  74 NW18G30   29.90F
COATESVILLE    CLOUDY    50  46  87 NW17G23   29.86F
POTTSTOWN      CLOUDY    52  46  80 NW15G24   29.85F
BLUE BELL      CLOUDY    52  50  93 NW5       29.81F
DOYLESTOWN     LGT RAIN  52  48  86 N12G21    29.79F
WILLOW GROVE   NOT AVBL
NORTH PHILA    LGT RAIN  54  48  80 NW13      29.80F
PHILADELPHIA   LGT RAIN  53  48  83 NW17G26   29.80F
$$



USA.gov is the U.S. government's official web portal to all federal, state and local government web resources and services.